Regional Weather Roundup
Issued by NWS

Home | Current Version | Previous Version | Text Only | Print | Product List | Glossary On
Versions: 1 2 3 4 5 6 7 8 9 10 11 12 13 14 15 16 17 18 19 20 21 22 23 24 25 26 27 28 29 30 31 32 33 34 35 36 37 38 39 40 41 42 43 44 45 46 47 48 49 50
000
ASUS44 KOUN 282310
RWROK

WEATHER ROUNDUP FOR OKLAHOMA
NATIONAL WEATHER SERVICE NORMAN OK
600 PM CDT SAT MAR 28 2015

NOTE: "FAIR" INDICATES FEW OR NO CLOUDS BELOW 12,000 FEET WITH NO
      SIGNIFICANT WEATHER AND/OR OBSTRUCTIONS TO VISIBILITY.

OKZ001>007-009>012-014-015-017-290000-
NORTHWEST OKLAHOMA AND THE PANHANDLE

CITY           SKY/WX    TMP DP  RH WIND       PRES   REMARKS
GAGE           SUNNY     85  34  16 E9        29.92S
GUYMON         SUNNY     84  28  13 SW8       29.91F
ENID/WOODRING  SUNNY     79  45  29 E10       29.95R
$$

OKZ016-021>023-033>039-044-045-290000-
SOUTHWEST OKLAHOMA

CITY           SKY/WX    TMP DP  RH WIND       PRES   REMARKS
LAWTON/REGL    SUNNY     78  50  37 S7        29.94S
LAWTON/FT SILL SUNNY     78  51  38 S9        29.94R
FREDERICK      SUNNY     79  49  34 SE10      29.91S
CLINTON        SUNNY     81  45  28 SE15      29.95S
HOBART         SUNNY     79  48  33 S16       29.94S
ALTUS AFB      SUNNY     81  47  30 SE14      29.93S
$$

OKZ018>020-024>031-290000-
CENTRAL OKLAHOMA

CITY           SKY/WX    TMP DP  RH WIND       PRES   REMARKS
OKLAHOMA CITY  SUNNY     77  43  29 E8        29.96S
OKC/WILEY POST SUNNY     77  45  32 SE9       29.96S
OKC/TINKER AFB SUNNY     78  43  28 E6        29.95S
STILLWATER     SUNNY     73  43  33 E12       29.98S
GUTHRIE        SUNNY     76  42  29 SE10      29.96S
$$

OKZ008-013-054>072-290000-
NORTHEAST OKLAHOMA

CITY           SKY/WX    TMP DP  RH WIND       PRES   REMARKS
TULSA          MOSUNNY   68  41  37 SE9       30.01S
TULSA/JONES    SUNNY     68  41  37 SE14      30.02R
PONCA CITY     SUNNY     73  41  31 SE14      29.97S
BARTLESVILLE   SUNNY     67  41  38 SE12      30.03R
MUSKOGEE       SUNNY     64  42  44 SE17      30.05S
$$

OKZ032-040>043-046>053-073>077-290000-
SOUTH CENTRAL/SOUTHEAST OKLAHOMA

CITY           SKY/WX    TMP DP  RH WIND       PRES   REMARKS
ARDMORE/DWNTWN SUNNY     77  43  29 S9        29.96S
MCALESTER      MOSUNNY   74  40  29 VRB5      30.01S
$$




USA.gov is the U.S. government's official web portal to all federal, state and local government web resources and services.